Weather History for KUIL - January, 2013

Change the Weather History Date:

Thursday, January 31, 2013

  Actual Average Record
Temperature  
Mean Temperature 47 °F 42 °F  
Max Temperature 51 °F 48 °F 63 °F (1998)
Min Temperature 43 °F 36 °F 17 °F (1979)
Degree Days  
Heating Degree Days 18 23  
Month to date heating degree days 780 725  
Since 1 July heating degree days 3108 3205  
Cooling Degree Days 0 0  
Month to date cooling degree days 0 0  
Year to date cooling degree days 0 0  
Moisture  
Dew Point 44 °F    
Average Humidity 90    
Maximum Humidity 93    
Minimum Humidity 86    
Precipitation  
Precipitation 0.43 in 0.43 in 2.36 in (1977)
Month to date precipitation 10.34 14.61  
Year to date precipitation 10.34 14.61  
Sea Level Pressure  
Sea Level Pressure 30.33 in    
Wind  
Wind Speed 4 mph (SSW)    
Max Wind Speed 12 mph    
Max Gust Speed 22 mph    
Visibility 2 miles    
Events Fog , Rain    
T = Trace of Precipitation, MM = Missing Value Source: NWS Daily Summary

Daily Weather History Graph

Daily Weather History Graph

Search for Another Location

Airport or City:

Trip Planner

Search our weather history database for the weather conditions in past years. The results will help you decide how hot, cold, wet, or windy it might be!

Date:

Astronomy

Jan. 31, 2013 Rise Set
Actual Time 7:46 AM PST 5:17 PM PST
Civil Twilight 7:13 AM PST 5:50 PM PST
Nautical Twilight 6:35 AM PST 6:28 PM PST
Astronomical Twilight 5:59 AM PST 7:04 PM PST
Moon 10:54 PM PST 9:23 AM PST
Length of Visible Light 10h 37m
Length of Day
9h 31m
Waning Gibbous, 79% of the Moon is Illuminated
Jan 31
Waning Gibbous
Feb 3
Last Quarter
Feb 9
New
Feb 17
First Quarter
Feb 25
Full

Hourly Weather History & Observations

Time (PST) Temp. Windchill Dew Point Humidity Pressure Visibility Wind Dir Wind Speed Gust Speed Precip Events Conditions
12:37 AM 46.4 °F 44.3 °F 44.6 °F 93% 30.40 in 0.5 mi South 4.6 mph - N/A Fog Fog
12:53 AM 46.9 °F - 45.0 °F 93% 30.40 in 1.0 mi South 4.6 mph - N/A   Overcast
1:24 AM 46.4 °F 45.2 °F 44.6 °F 93% 30.39 in 1.8 mi SE 3.5 mph - 0.00 in   Overcast
1:53 AM 46.9 °F - 45.0 °F 93% 30.39 in 2.0 mi Calm Calm - 0.00 in   Overcast
2:50 AM 46.4 °F 44.3 °F 44.6 °F 93% 30.38 in 3.0 mi South 4.6 mph - N/A   Overcast
2:53 AM 46.9 °F - 45.0 °F 93% 30.39 in 3.0 mi South 4.6 mph - N/A   Overcast
3:28 AM 46.4 °F 45.2 °F 44.6 °F 93% 30.38 in 2.5 mi South 3.5 mph - N/A   Overcast
3:53 AM 46.9 °F - 45.0 °F 93% 30.38 in 3.0 mi Calm Calm - 0.00 in   Overcast
4:06 AM 46.4 °F - 44.6 °F 93% 30.37 in 2.5 mi Calm Calm - 0.00 in Rain Light Rain
4:15 AM 46.4 °F 43.5 °F 44.6 °F 93% 30.37 in 3.0 mi SSE 5.8 mph - 0.00 in   Overcast
4:28 AM 46.4 °F 45.2 °F 44.6 °F 93% 30.36 in 3.0 mi Variable 3.5 mph - N/A   Overcast
4:50 AM 46.4 °F 44.3 °F 44.6 °F 93% 30.36 in 1.8 mi SSE 4.6 mph - 0.00 in Rain Light Rain
4:53 AM 46.9 °F - 45.0 °F 93% 30.36 in 1.5 mi SSE 3.5 mph - 0.01 in Rain Light Rain
5:02 AM 46.4 °F 44.3 °F 44.6 °F 93% 30.35 in 3.0 mi Variable 4.6 mph - 0.00 in Rain Light Rain
5:53 AM 46.9 °F - 44.1 °F 90% 30.35 in 4.0 mi SSE 4.6 mph - 0.01 in Rain Light Rain
6:41 AM 46.4 °F 43.5 °F 44.6 °F 93% 30.33 in 2.0 mi Variable 5.8 mph - 0.01 in Rain Light Rain
6:51 AM 46.4 °F 42.4 °F 44.6 °F 93% 30.33 in 1.5 mi South 8.1 mph - 0.02 in Rain Light Rain
6:53 AM 46.9 °F - 44.1 °F 90% 30.33 in 1.5 mi Variable 4.6 mph - 0.02 in Rain Light Rain
7:00 AM 46.4 °F 42.9 °F 44.6 °F 93% 30.33 in 1.5 mi Variable 6.9 mph - 0.01 in Rain Light Rain
7:22 AM 46.4 °F 43.5 °F 44.6 °F 93% 30.32 in 2.0 mi SSE 5.8 mph - 0.03 in Rain Light Rain
7:32 AM 46.4 °F 42.9 °F 44.6 °F 93% 30.32 in 1.8 mi South 6.9 mph - 0.05 in Rain Light Rain
7:40 AM 46.4 °F 43.5 °F 44.6 °F 93% 30.31 in 2.0 mi SE 5.8 mph - 0.06 in Rain Light Rain
7:53 AM 46.9 °F - 44.1 °F 90% 30.32 in 2.5 mi SSE 4.6 mph - 0.07 in Rain Light Rain
8:10 AM 46.4 °F 41.9 °F 44.6 °F 93% 30.32 in 2.0 mi South 9.2 mph - 0.01 in Rain Light Rain
8:18 AM 46.4 °F 42.4 °F 44.6 °F 93% 30.32 in 1.5 mi South 8.1 mph - 0.02 in Rain Light Rain
8:26 AM 46.4 °F 42.4 °F 44.6 °F 93% 30.32 in 0.8 mi South 8.1 mph - 0.03 in Rain Light Rain
8:53 AM 48.0 °F - 44.1 °F 86% 30.33 in 0.5 mi South 8.1 mph - 0.09 in Fog , Rain Light Rain
9:38 AM 48.2 °F - 44.6 °F 87% 30.32 in 0.8 mi South 6.9 mph - 0.05 in Rain Light Rain
9:53 AM 48.0 °F - 45.0 °F 89% 30.32 in 0.8 mi South 6.9 mph 21.9 mph 0.06 in Rain Light Rain
10:04 AM 48.2 °F - 44.6 °F 87% 30.32 in 0.8 mi SSE 6.9 mph - 0.01 in Rain Light Rain
10:25 AM 48.2 °F - 46.4 °F 93% 30.33 in 0.5 mi Variable 5.8 mph - 0.02 in Fog , Rain Light Rain
10:37 AM 48.2 °F - 46.4 °F 93% 30.33 in 0.2 mi South 4.6 mph - 0.04 in Fog , Rain Light Rain
10:53 AM 48.9 °F - 46.0 °F 90% 30.32 in 0.5 mi South 10.4 mph 16.1 mph 0.08 in Fog , Rain Light Rain
11:20 AM 48.2 °F - 46.4 °F 93% 30.32 in 1.0 mi South 9.2 mph 19.6 mph 0.02 in Rain Light Rain
11:26 AM 48.2 °F - 46.4 °F 93% 30.31 in 0.8 mi Variable 6.9 mph 16.1 mph 0.02 in Rain Light Rain
11:38 AM 48.2 °F - 46.4 °F 93% 30.31 in 1.0 mi Variable 5.8 mph - N/A   Overcast
11:53 AM 48.9 °F - 46.0 °F 90% 30.32 in 1.0 mi South 9.2 mph - 0.02 in   Overcast
12:06 PM 48.2 °F - 46.4 °F 93% 30.32 in 0.5 mi SSW 8.1 mph - 0.00 in Fog , Rain Light Rain
12:21 PM 50.0 °F - 46.4 °F 87% 30.31 in 0.5 mi South 6.9 mph - 0.02 in Fog , Rain Light Rain
12:53 PM 50.0 °F - 46.9 °F 89% 30.31 in 0.5 mi Variable 4.6 mph - 0.05 in Fog , Rain Light Rain
1:05 PM 50.0 °F - 46.4 °F 87% 30.30 in 0.5 mi SSW 5.8 mph - 0.00 in Fog , Rain Light Rain
1:53 PM 50.0 °F - 46.9 °F 89% 30.30 in 0.5 mi South 4.6 mph - 0.01 in Fog Fog
2:11 PM 50.0 °F - 46.4 °F 87% 30.29 in 1.5 mi SSW 5.8 mph - N/A   Overcast
2:22 PM 50.0 °F - 46.4 °F 87% 30.29 in 2.5 mi SW 3.5 mph - N/A   Overcast
2:26 PM 50.0 °F - 46.4 °F 87% 30.29 in 1.2 mi SSW 4.6 mph - N/A   Overcast
2:37 PM 50.0 °F - 46.4 °F 87% 30.29 in 2.0 mi WSW 4.6 mph - N/A   Overcast
2:46 PM 50.0 °F - 46.4 °F 87% 30.29 in 4.0 mi WSW 6.9 mph - N/A   Overcast
2:53 PM 50.0 °F - 46.0 °F 86% 30.30 in 2.0 mi West 6.9 mph - 0.00 in Rain Light Rain
3:00 PM 50.0 °F - 46.4 °F 87% 30.30 in 2.5 mi WSW 5.8 mph - 0.00 in Rain Light Rain
3:15 PM 48.2 °F - 46.4 °F 93% 30.30 in 1.2 mi West 6.9 mph - 0.00 in   Overcast
3:27 PM 48.2 °F - 46.4 °F 93% 30.30 in 0.5 mi WSW 4.6 mph - 0.00 in Fog Fog
3:53 PM 48.9 °F - 46.0 °F 90% 30.31 in 0.5 mi Calm Calm - 0.00 in Fog Fog
4:13 PM 48.2 °F - 46.4 °F 93% 30.30 in 0.8 mi WSW 4.6 mph - N/A   Overcast
4:24 PM 48.2 °F - 46.4 °F 93% 30.31 in 1.0 mi West 4.6 mph - N/A   Overcast
4:45 PM 48.2 °F - 44.6 °F 87% 30.31 in 0.8 mi WNW 5.8 mph - 0.01 in Rain Light Rain
4:53 PM 48.0 °F - 44.1 °F 86% 30.31 in 1.2 mi WNW 6.9 mph - 0.01 in   Overcast
4:59 PM 48.2 °F - 44.6 °F 87% 30.31 in 1.5 mi WNW 5.8 mph - N/A   Overcast
5:19 PM 46.4 °F 44.3 °F 44.6 °F 93% 30.31 in 2.0 mi WNW 4.6 mph - N/A   Overcast
5:28 PM 46.4 °F 44.3 °F 42.8 °F 87% 30.31 in 4.0 mi WNW 4.6 mph - N/A   Overcast
5:53 PM 46.9 °F - 43.0 °F 86% 30.32 in 3.0 mi NNW 3.5 mph - N/A   Overcast
6:53 PM 46.0 °F - 42.1 °F 86% 30.32 in 7.0 mi Calm Calm - N/A   Overcast
7:46 PM 44.6 °F - 42.8 °F 93% 30.32 in 1.5 mi Calm Calm - N/A   Overcast
7:53 PM 46.0 °F - 42.1 °F 86% 30.32 in 1.0 mi Calm Calm - N/A   Overcast
7:57 PM 46.4 °F - 42.8 °F 87% 30.31 in 2.0 mi Calm Calm - N/A   Overcast
8:05 PM 44.6 °F - 42.8 °F 93% 30.31 in 3.0 mi Calm Calm - N/A   Overcast
8:16 PM 44.6 °F - 42.8 °F 93% 30.31 in 1.8 mi Calm Calm - N/A   Overcast
8:19 PM 44.6 °F - 42.8 °F 93% 30.32 in 0.8 mi Calm Calm - N/A   Overcast
8:30 PM 46.4 °F - 42.8 °F 87% 30.32 in 0.5 mi Calm Calm - N/A Fog Fog
8:42 PM 46.4 °F - 42.8 °F 87% 30.33 in 1.2 mi Calm Calm - N/A   Overcast
8:49 PM 46.4 °F - 42.8 °F 87% 30.33 in 2.0 mi Calm Calm - N/A   Overcast
8:53 PM 46.0 °F - 43.0 °F 89% 30.33 in 2.5 mi Calm Calm - N/A   Overcast
9:03 PM 46.4 °F - 42.8 °F 87% 30.33 in 1.8 mi Calm Calm - N/A   Overcast
9:11 PM 46.4 °F - 42.8 °F 87% 30.33 in 0.8 mi Calm Calm - 0.00 in Rain Light Rain
9:20 PM 46.4 °F - 42.8 °F 87% 30.33 in 1.0 mi Calm Calm - 0.00 in   Overcast
9:48 PM 46.4 °F - 42.8 °F 87% 30.33 in 1.5 mi Calm Calm - 0.00 in   Overcast
9:49 PM 46.0 °F - 42.1 °F 86% 30.34 in 1.5 mi Calm Calm - 0.00 in   Overcast
10:14 PM 44.6 °F - 42.8 °F 93% 30.33 in 3.0 mi Calm Calm - N/A   Overcast
10:50 PM 44.6 °F - 41.0 °F 87% 30.34 in 6.0 mi Calm Calm - N/A   Overcast
10:53 PM 45.0 °F - 41.0 °F 86% 30.34 in 6.0 mi Calm Calm - N/A   Overcast
11:33 PM 44.6 °F - 41.0 °F 87% 30.35 in 1.8 mi Calm Calm - N/A   Overcast
11:44 PM 44.6 °F - 41.0 °F 87% 30.34 in 0.8 mi Calm Calm - N/A   Overcast
11:53 PM 43.0 °F - 39.9 °F 89% 30.35 in 0.2 mi Calm Calm - N/A Fog Fog